Regional Weather Roundup
Issued by NWS Midland/Odessa, TX

Skip options and go directly to product.
Home | Oldest Version | Next Version | Current Version | All | Text Only | Save Text | Print | Product List | Glossary On

Skip product version selection by date and time.   
647
ASUS44 KMAF 291010
RWRMAF
MIDLAND AREA WEATHER ROUNDUP
NATIONAL WEATHER SERVICE MIDLAND TX
500 AM CDT MON SEP 29 2014

...IN SOUTHWEST TEXAS AND SOUTHEAST NEW MEXICO...

CITY           SKY/WX    TMP DP  RH WIND       PRES   REMARKS
ALPINE         CLEAR     55  53  93 SW5       30.16F
ANDREWS        FAIR      60  57  88 CALM      30.08S
ARTESIA        NOT AVBL
BIG SPRING     CLEAR     62  56  83 CALM      30.09S
CARLSBAD       CLEAR     61  58  90 SE6       30.04F FOG
DRYDEN           N/A     67  61  81 N7        30.01S
FORT STOCKTON  CLEAR     62  59  90 S5        30.05S
GUAD PASS      CLEAR     59  53  80 NE16      30.16S
HOBBS          CLEAR     57  57 100 SE6       30.09F
MARFA          CLEAR     52  52 100 N7        30.14F
MIDLAND AIRPK  CLEAR     64  57  78 SE3       30.07F
MIDLAND INTL   CLEAR     62  57  83 SE5       30.06F
ODESSA         CLEAR     62  57  83 SE6       30.07F
PECOS          CLEAR     60  57  91 E5        30.02F
PRESIDIO       FAIR      67  60  78 N7        30.02S
SEMINOLE       CLEAR     59  57  94 CALM      30.09F
SNYDER         CLEAR     64  58  82 CALM      30.07F
WINK           CLEAR     62  60  93 E5        30.03F
$$
...OTHER STATIONS IN TEXAS...

CITY           SKY/WX    TMP DP  RH WIND       PRES   REMARKS
ABILENE        CLEAR     64  56  75 SE5       30.05S
AMARILLO       CLEAR     58  55  90 S8        30.10F
AUSTIN         CLEAR     65  63  93 CALM      29.96S
BROWNSVILLE    MOCLDY    75  75 100 N6        29.86S
CORPUS CHRISTI CLOUDY    73  71  93 N7        29.89F
DALLAS FTW     CLEAR     70  59  68 N5        30.00F
DEL RIO        CLEAR     69  64  84 NE6       29.96F
EL PASO        PTCLDY    68  58  70 S3        30.02F
HOUSTON INT    PTCLDY    72  70  93 N3        29.92S
LUBBOCK        CLEAR     59  56  89 SE6       30.08F
SAN ANGELO     CLEAR     58  54  86 CALM      30.04S
SAN ANTONIO    MOCLDY    73  65  75 N7        29.96S
WACO           CLEAR     66  59  78 N6        29.99S
WICHITA FALLS  NOT AVBL
$$
...OTHER LOCATIONS IN NEW MEXICO...

CITY           SKY/WX    TMP DP  RH WIND       PRES   REMARKS
ALAMAGORDO     PTCLDY    64  57  77 SE6       30.04S
ALBUQUERQUE    PTCLDY    62  50  64 CALM      30.08S
CANNON AFB     CLEAR     56  54  93 SE5       30.12S
CLOVIS           N/A     55  54  94 S5        30.14S
HOLLOMAN AFB   PTCLDY    67  57  70 S14       30.02S
ROSWELL        CLEAR     58  55  90 NE6       30.06S
RUIDOSO        FOG       54  54 100 S3        30.21F VSB<1/4
SANTA FE       CLEAR     56  51  84 SE10      30.13F
TRUTH OR CONSE CLEAR     64  52  64 SW8       30.04F
TUCUMCARI      CLEAR     61  54  77 SE5       30.08F
$$

USA.gov is the U.S. government's official web portal to all federal, state and local government web resources and services.